Weather History for Plant City, FL

Change the Weather History Date:

Saturday, June 7, 2014

  Actual Average Record
Temperature  
Mean Temperature 83 °F -  
Max Temperature 93 °F 91 °F 99 °F (1985)
Min Temperature 73 °F 69 °F 60 °F (1933)
Cooling Degree Days 18    
Growing Degree Days 33 (Base 50)    
Moisture  
Dew Point 69 °F    
Average Humidity 63    
Maximum Humidity 100    
Minimum Humidity 36    
Precipitation  
Precipitation 0.00 in - - ()
Sea Level Pressure  
Sea Level Pressure 30.00 in    
Wind  
Wind Speed 3 mph (WNW)    
Max Wind Speed 13 mph    
Max Gust Speed 17 mph    
Visibility 10 miles    
Events      
Averages and records for this station are not official NWS values.
T = Trace of Precipitation, MM = Missing Value Source: NWS Daily Summary

Daily Weather History Graph

Daily Weather History Graph

Search for Another Location

Airport:

Trip Planner

Search our weather history database for the weather conditions in past years. The results will help you decide how hot, cold, wet, or windy it might be!

Date:

Astronomy

Jun. 07, 2014 Rise Set
Actual Time 6:31 AM EDT 8:23 PM EDT
Civil Twilight 6:05 AM EDT 8:50 PM EDT
Nautical Twilight 5:33 AM EDT 9:22 PM EDT
Astronomical Twilight 4:59 AM EDT 9:56 PM EDT
Moon 3:05 PM EDT (6/7) 2:24 AM EDT (6/7)
Length of Visible Light 14h 44m
Length of Day
13h 51m
Waxing Gibbous, 67% of the Moon is Illuminated
Jun 7
Waxing Gibbous
Jun 13
Full
Jun 19
Last Quarter
Jun 27
New
Jul 5
First Quarter

Hourly Weather History & Observations

Time (EDT) Temp. Heat Index Dew Point Humidity Pressure Visibility Wind Dir Wind Speed Gust Speed Precip Events Conditions
12:15 AM 77.0 °F - 69.8 °F 78% 30.02 in 10.0 mi Calm Calm - N/A   Clear
12:35 AM 77.0 °F - 71.6 °F 83% 30.02 in 10.0 mi Calm Calm - N/A   Scattered Clouds
12:55 AM 77.0 °F - 71.6 °F 83% 30.03 in 10.0 mi Calm Calm - N/A   Scattered Clouds
1:15 AM 75.2 °F - 73.4 °F 94% 30.03 in 10.0 mi NE 3.5 mph - N/A   Scattered Clouds
1:35 AM 75.2 °F - 71.6 °F 89% 30.03 in 10.0 mi Calm Calm - N/A   Clear
1:55 AM 75.2 °F - 73.4 °F 94% 30.03 in 10.0 mi Calm Calm - N/A   Clear
2:15 AM 75.2 °F - 73.4 °F 94% 30.02 in 10.0 mi Calm Calm - N/A   Clear
2:35 AM 75.2 °F - 73.4 °F 94% 30.02 in 10.0 mi Calm Calm - N/A   Clear
2:55 AM 75.2 °F - 75.2 °F 100% 30.02 in 10.0 mi Calm Calm - N/A   Clear
3:15 AM 75.2 °F - 75.2 °F 100% 30.02 in 10.0 mi North 3.5 mph - N/A   Clear
3:35 AM 75.2 °F - 75.2 °F 100% 30.02 in 10.0 mi NNE 3.5 mph - N/A   Scattered Clouds
3:55 AM 75.2 °F - - N/A% 29.99 in 10.0 mi Calm Calm - N/A   Scattered Clouds
4:15 AM 75.2 °F - - N/A% 30.01 in 10.0 mi NNE 3.5 mph - N/A   Clear
4:35 AM 75.2 °F - - N/A% 29.98 in 10.0 mi Calm Calm - N/A   Clear
4:55 AM 75.2 °F - - N/A% 29.96 in 10.0 mi Calm Calm - N/A   Clear
5:15 AM 73.4 °F - - N/A% 29.96 in 10.0 mi Calm Calm - N/A   Clear
5:35 AM 73.4 °F - - N/A% 29.95 in 10.0 mi SE 4.6 mph - N/A   Clear
5:55 AM 73.4 °F - - N/A% 29.93 in 10.0 mi SSE 4.6 mph - N/A   Clear
6:15 AM 73.4 °F - - N/A% 29.90 in 10.0 mi South 10.4 mph - N/A   Clear
6:35 AM 73.4 °F - - N/A% 29.94 in 10.0 mi Calm Calm - N/A   Clear
6:55 AM 73.4 °F - - N/A% 29.95 in 10.0 mi South 4.6 mph - N/A   Clear
7:15 AM 73.4 °F - - N/A% 29.97 in 10.0 mi Calm Calm - N/A   Clear
7:35 AM 73.4 °F - - N/A% 29.99 in 10.0 mi Calm Calm - N/A   Clear
8:15 AM 77.0 °F - - N/A% 30.03 in 10.0 mi Calm Calm - N/A   Clear
9:15 AM 80.6 °F 86.2 °F 75.2 °F 84% 30.06 in 10.0 mi Calm Calm - N/A   Clear
9:35 AM 80.6 °F 86.2 °F 75.2 °F 84% 30.07 in 10.0 mi Calm Calm - N/A   Clear
9:55 AM 80.6 °F 86.2 °F 75.2 °F 84% 30.06 in 10.0 mi Calm Calm - N/A   Clear
10:15 AM 84.2 °F 92.3 °F 75.2 °F 74% 30.07 in 10.0 mi WNW 4.6 mph - N/A   Clear
10:35 AM 84.2 °F 90.9 °F 73.4 °F 70% 30.06 in 10.0 mi WNW 6.9 mph - N/A   Clear
10:55 AM 86.0 °F 93.4 °F 73.4 °F 66% 30.07 in 10.0 mi West 9.2 mph - N/A   Scattered Clouds
11:15 AM 86.0 °F 91.8 °F 71.6 °F 62% 30.06 in 10.0 mi NW 6.9 mph - N/A   Scattered Clouds
11:35 AM 87.8 °F 93.8 °F 71.6 °F 58% 30.06 in 10.0 mi West 8.1 mph - N/A   Scattered Clouds
11:55 AM 87.8 °F 92.6 °F 69.8 °F 55% 30.06 in 10.0 mi West 6.9 mph 16.1 mph N/A   Scattered Clouds
12:15 PM 87.8 °F 92.6 °F 69.8 °F 55% 30.05 in 10.0 mi NW 6.9 mph - N/A   Mostly Cloudy
12:35 PM 89.6 °F 94.7 °F 69.8 °F 52% 30.04 in 10.0 mi NW 8.1 mph - N/A   Mostly Cloudy
12:55 PM 87.8 °F 91.4 °F 68.0 °F 52% 30.04 in 10.0 mi WSW 5.8 mph - N/A   Mostly Cloudy
1:15 PM 89.6 °F 93.4 °F 68.0 °F 49% 30.03 in 10.0 mi NW 5.8 mph - N/A   Mostly Cloudy
1:35 PM 91.4 °F 95.4 °F 68.0 °F 46% 30.02 in 10.0 mi WNW 5.8 mph - N/A   Scattered Clouds
1:55 PM 93.2 °F 97.7 °F 68.0 °F 44% 30.01 in 10.0 mi WNW 9.2 mph - N/A   Scattered Clouds
2:15 PM 91.4 °F 94.0 °F 66.2 °F 43% 30.00 in 10.0 mi West 12.7 mph 16.1 mph N/A   Scattered Clouds
2:35 PM 93.2 °F 96.2 °F 66.2 °F 41% 30.00 in 10.0 mi West 10.4 mph 17.3 mph N/A   Clear
2:55 PM 93.2 °F 96.2 °F 66.2 °F 41% 29.99 in 10.0 mi West 10.4 mph - N/A   Scattered Clouds
3:15 PM 93.2 °F 94.9 °F 64.4 °F 38% 29.98 in 10.0 mi WNW 4.6 mph - N/A   Scattered Clouds
3:35 PM 93.2 °F 94.1 °F 62.6 °F 36% 29.98 in 10.0 mi WNW 4.6 mph - N/A   Scattered Clouds
3:55 PM 91.4 °F 93.2 °F 64.4 °F 41% 29.97 in 10.0 mi WNW 8.1 mph - N/A   Mostly Cloudy
4:15 PM 93.2 °F 94.9 °F 64.4 °F 38% 29.97 in 10.0 mi WSW 6.9 mph 16.1 mph N/A   Overcast
4:35 PM 91.4 °F 93.2 °F 64.4 °F 41% 29.97 in 10.0 mi WNW 8.1 mph - N/A   Overcast
4:55 PM 89.6 °F 91.1 °F 64.4 °F 43% 29.97 in 10.0 mi NW 6.9 mph - N/A   Overcast
5:15 PM 91.4 °F 93.2 °F 64.4 °F 41% 29.96 in 10.0 mi WNW 5.8 mph - N/A   Overcast
5:35 PM 91.4 °F 94.0 °F 66.2 °F 43% 29.96 in 10.0 mi West 9.2 mph - N/A   Scattered Clouds
5:55 PM 91.4 °F 94.0 °F 66.2 °F 43% 29.96 in 10.0 mi West 11.5 mph - N/A   Scattered Clouds
6:15 PM 91.4 °F 94.0 °F 66.2 °F 43% 29.96 in 10.0 mi WNW 8.1 mph - N/A   Scattered Clouds
6:35 PM 89.6 °F 92.2 °F 66.2 °F 46% 29.95 in 10.0 mi WNW 6.9 mph - N/A   Clear
6:55 PM 89.6 °F 92.2 °F 66.2 °F 46% 29.96 in 10.0 mi NW 10.4 mph - N/A   Clear
7:15 PM 89.6 °F 92.2 °F 66.2 °F 46% 29.96 in 10.0 mi NNW 9.2 mph - N/A   Clear
7:35 PM 87.8 °F 90.4 °F 66.2 °F 49% 29.96 in 10.0 mi NW 5.8 mph - N/A   Clear
7:55 PM 86.0 °F 88.2 °F 66.2 °F 51% 29.97 in 10.0 mi NW 6.9 mph - N/A   Clear
8:15 PM 86.0 °F 89.4 °F 68.0 °F 55% 29.97 in 10.0 mi WNW 5.8 mph - N/A   Clear
8:35 PM 84.2 °F 87.3 °F 68.0 °F 58% 29.98 in 10.0 mi NW 5.8 mph - N/A   Clear
8:55 PM 84.2 °F 87.3 °F 68.0 °F 58% 29.99 in 10.0 mi NW 5.8 mph - N/A   Clear
9:15 PM 84.2 °F 87.3 °F 68.0 °F 58% 29.99 in 7.0 mi NW 3.5 mph - N/A   Clear
9:35 PM 82.4 °F 86.3 °F 69.8 °F 66% 29.99 in 10.0 mi NNW 3.5 mph - N/A   Clear
9:55 PM 82.4 °F 86.3 °F 69.8 °F 66% 29.99 in 10.0 mi WNW 3.5 mph - N/A   Clear
10:15 PM 82.4 °F 86.3 °F 69.8 °F 66% 30.01 in 10.0 mi NW 3.5 mph - N/A   Clear
10:35 PM 82.4 °F 86.3 °F 69.8 °F 66% 30.01 in 10.0 mi NNW 4.6 mph - N/A   Clear
10:55 PM 80.6 °F 84.6 °F 71.6 °F 74% 30.01 in 10.0 mi Calm Calm - N/A   Clear
11:15 PM 80.6 °F 84.6 °F 71.6 °F 74% 30.01 in 10.0 mi Calm Calm - N/A   Clear
11:35 PM 78.8 °F - 71.6 °F 78% 30.02 in 10.0 mi Calm Calm - N/A   Clear
11:55 PM 77.0 °F - 71.6 °F 83% 30.02 in 10.0 mi Calm Calm - N/A   Clear